Time,TemperatureF,DewpointF,PressureIn,WindDirection,WindDirectionDegrees,WindSpeedMPH,WindSpeedGustMPH,Humidity,HourlyPrecipIn,Conditions,Clouds,dailyrainin,SoftwareType,DateUTC
2013-10-15 00:22:00,52.0,52.0,29.71,SE,130,10.0,17.0,100,-99.99,,,-99.99,,2013-10-15 05:22:00,
2013-10-15 00:42:00,52.0,52.0,29.70,SE,130,9.0,-999.0,100,-99.99,,,-99.99,,2013-10-15 05:42:00,
2013-10-15 00:52:00,54.0,52.0,29.69,ESE,120,9.0,-999.0,93,-99.99,,,-99.99,,2013-10-15 05:52:00,
2013-10-15 01:02:00,54.0,52.0,29.69,ESE,120,9.0,-999.0,93,-99.99,,,-99.99,,2013-10-15 06:02:00,
2013-10-15 01:12:00,54.0,52.0,29.69,ESE,120,9.0,-999.0,93,-99.99,,,-99.99,,2013-10-15 06:12:00,
2013-10-15 01:22:00,54.0,52.0,29.69,ESE,120,9.0,-999.0,93,-99.99,,,-99.99,,2013-10-15 06:22:00,
2013-10-15 01:43:00,54.0,52.0,29.68,SE,140,6.0,-999.0,93,-99.99,,,-99.99,,2013-10-15 06:43:00,
2013-10-15 02:22:00,54.0,54.0,29.68,South,180,5.0,-999.0,100,-99.99,,,-99.99,,2013-10-15 07:22:00,
2013-10-15 02:42:00,54.0,54.0,29.68,SW,230,13.0,23.0,100,-99.99,,,-99.99,,2013-10-15 07:42:00,
2013-10-15 03:22:00,52.0,50.0,29.70,WSW,240,17.0,23.0,93,-99.99,,,-99.99,,2013-10-15 08:22:00,
2013-10-15 03:42:00,52.0,50.0,29.70,WSW,250,15.0,31.0,93,-99.99,,,-99.99,,2013-10-15 08:42:00,
2013-10-15 03:52:00,50.0,48.0,29.70,WSW,250,14.0,21.0,93,-99.99,,,-99.99,,2013-10-15 08:52:00,
2013-10-15 04:02:00,50.0,48.0,29.70,WSW,250,14.0,21.0,93,-99.99,,,-99.99,,2013-10-15 09:02:00,
2013-10-15 04:22:00,50.0,48.0,29.70,WSW,240,17.0,24.0,93,-99.99,,,-99.99,,2013-10-15 09:22:00,
2013-10-15 04:43:00,48.0,48.0,29.71,North,-999,-999.0,-999.0,100,-99.99,,,-99.99,,2013-10-15 09:43:00,
2013-10-15 05:23:00,48.0,46.0,29.72,WSW,240,17.0,-999.0,93,-99.99,,,-99.99,,2013-10-15 10:23:00,
2013-10-15 05:42:00,46.0,46.0,29.73,WSW,250,17.0,27.0,100,-99.99,,,-99.99,,2013-10-15 10:42:00,
2013-10-15 06:22:00,46.0,45.0,29.73,WSW,240,17.0,23.0,93,-99.99,,,-99.99,,2013-10-15 11:22:00,
2013-10-15 06:42:00,46.0,45.0,29.74,WSW,250,16.0,24.0,93,-99.99,,,-99.99,,2013-10-15 11:42:00,
2013-10-15 07:22:00,45.0,45.0,29.75,WSW,250,14.0,22.0,100,-99.99,,,-99.99,,2013-10-15 12:22:00,
2013-10-15 07:42:00,45.0,43.0,29.75,WSW,240,14.0,21.0,93,-99.99,,,-99.99,,2013-10-15 12:42:00,
2013-10-15 08:21:00,45.0,43.0,29.75,WSW,240,16.0,22.0,93,-99.99,,,-99.99,,2013-10-15 13:21:00,
2013-10-15 08:42:00,45.0,43.0,29.76,WSW,240,13.0,20.0,93,-99.99,,,-99.99,,2013-10-15 13:42:00,
2013-10-15 09:22:00,46.0,45.0,29.77,West,270,15.0,25.0,93,-99.99,,,-99.99,,2013-10-15 14:22:00,
2013-10-15 09:42:00,46.0,45.0,29.77,West,270,15.0,23.0,93,-99.99,,,-99.99,,2013-10-15 14:42:00,
2013-10-15 10:22:00,46.0,45.0,29.78,West,260,17.0,24.0,93,-99.99,,,-99.99,,2013-10-15 15:22:00,
2013-10-15 10:44:00,46.0,45.0,29.78,West,270,17.0,25.0,93,-99.99,,,-99.99,,2013-10-15 15:44:00,
2013-10-15 11:23:00,48.0,46.0,29.80,West,270,17.0,23.0,93,-99.99,,,-99.99,,2013-10-15 16:23:00,
2013-10-15 11:42:00,48.0,46.0,29.81,West,280,15.0,22.0,93,-99.99,,,-99.99,,2013-10-15 16:42:00,
2013-10-15 12:22:00,48.0,46.0,29.82,NW,310,21.0,25.0,93,-99.99,,,-99.99,,2013-10-15 17:22:00,
2013-10-15 12:42:00,48.0,46.0,29.84,WNW,300,17.0,25.0,93,-99.99,,,-99.99,,2013-10-15 17:42:00,
2013-10-15 13:22:00,48.0,45.0,29.85,WNW,300,15.0,24.0,87,-99.99,,,-99.99,,2013-10-15 18:22:00,
2013-10-15 13:42:00,48.0,46.0,29.86,NW,310,16.0,21.0,93,-99.99,,,-99.99,,2013-10-15 18:42:00,
2013-10-15 14:22:00,48.0,45.0,29.87,NNW,330,23.0,32.0,87,-99.99,,,-99.99,,2013-10-15 19:22:00,
2013-10-15 14:42:00,46.0,45.0,29.88,NW,310,16.0,31.0,93,-99.99,,,-99.99,,2013-10-15 19:42:00,
2013-10-15 15:22:00,46.0,43.0,29.90,NW,310,20.0,25.0,87,-99.99,,,-99.99,,2013-10-15 20:22:00,
2013-10-15 15:42:00,46.0,43.0,29.90,NW,320,20.0,24.0,87,-99.99,,,-99.99,,2013-10-15 20:42:00,
2013-10-15 16:22:00,46.0,43.0,29.92,NW,320,16.0,25.0,87,-99.99,,,-99.99,,2013-10-15 21:22:00,
2013-10-15 16:44:00,46.0,43.0,29.92,NW,320,20.0,27.0,87,-99.99,,,-99.99,,2013-10-15 21:44:00,
2013-10-15 17:23:00,46.0,43.0,29.93,NW,310,18.0,23.0,87,-99.99,,,-99.99,,2013-10-15 22:23:00,
2013-10-15 17:43:00,46.0,43.0,29.94,NW,310,16.0,24.0,87,-99.99,,,-99.99,,2013-10-15 22:43:00,
2013-10-15 18:22:00,45.0,43.0,29.95,NW,320,15.0,27.0,93,-99.99,,,-99.99,,2013-10-15 23:22:00,
2013-10-15 18:43:00,45.0,43.0,29.96,NW,310,14.0,23.0,93,-99.99,,,-99.99,,2013-10-15 23:43:00,
2013-10-15 19:22:00,45.0,41.0,29.98,NW,320,15.0,21.0,87,-99.99,,,-99.99,,2013-10-16 00:22:00,
2013-10-15 19:42:00,45.0,41.0,29.99,NW,310,13.0,18.0,87,-99.99,,,-99.99,,2013-10-16 00:42:00,
2013-10-15 20:22:00,45.0,39.0,30.00,NW,320,14.0,18.0,81,-99.99,,,-99.99,,2013-10-16 01:22:00,
2013-10-15 20:42:00,45.0,41.0,30.01,NNW,330,14.0,20.0,87,-99.99,,,-99.99,,2013-10-16 01:42:00,
2013-10-15 21:12:00,43.0,39.0,30.02,WNW,300,13.0,-999.0,86,-99.99,,,-99.99,,2013-10-16 02:12:00,
2013-10-15 21:22:00,43.0,39.0,30.02,WNW,300,13.0,-999.0,86,-99.99,,,-99.99,,2013-10-16 02:22:00,
2013-10-15 21:42:00,43.0,39.0,30.03,WNW,300,17.0,22.0,86,-99.99,,,-99.99,,2013-10-16 02:42:00,
2013-10-15 22:22:00,45.0,41.0,30.03,NW,310,15.0,20.0,87,-99.99,,,-99.99,,2013-10-16 03:22:00,
2013-10-15 22:45:00,45.0,41.0,30.04,WNW,300,12.0,16.0,87,-99.99,,,-99.99,,2013-10-16 03:45:00,
2013-10-15 22:54:00,45.0,41.0,30.04,NW,310,13.0,-999.0,87,-99.99,,,-99.99,,2013-10-16 03:54:00,
2013-10-15 23:04:00,45.0,41.0,30.04,NW,310,13.0,-999.0,87,-99.99,,,-99.99,,2013-10-16 04:04:00,
2013-10-15 23:24:00,45.0,41.0,30.04,NW,310,12.0,18.0,87,-99.99,,,-99.99,,2013-10-16 04:24:00,
2013-10-15 23:43:00,45.0,43.0,30.03,NW,310,15.0,-999.0,93,-99.99,,,-99.99,,2013-10-16 04:43:00,